• Processing (Info)

  • MPEC 2020-V60 : 2020 VL1

    The following Minor Planet Electronic Circular may be linked-to from your own Web pages, but must not otherwise be redistributed electronically.

    A form allowing access to any MPEC is at the bottom of this page.


    Read MPEC 2020-V59 Read MPEC 2020-V61


    M.P.E.C. 2020-V60                             Issued 2020 November 10, 13:30 UT
    
         The Minor Planet Electronic Circulars contain information on unusual
             minor planets and routine data on comets.  They are published
        on behalf of Division F of the International Astronomical Union by the
              Minor Planet Center, Smithsonian Astrophysical Observatory,
                              Cambridge, MA 02138, U.S.A.
    
                 Prepared using the Tamkin Foundation Computer Network
    
                                  MPC@CFA.HARVARD.EDU
                URL https://www.minorplanetcenter.net/    ISSN 1523-6714
    
                                    2020 VL1                                 
    
    
    Observations:
         K20V01L  C2020 11 06.82766 01 19 26.58 +20 36 21.9                oEV060K88
         K20V01L  C2020 11 06.82843 01 19 26.92 +20 36 14.7          19.0 RoEV060K88
         K20V01L  C2020 11 06.82923 01 19 27.29 +20 36 07.7          19.1 RoEV060K88
         K20V01L* C2020 11 09.88391 02 01 29.14 +08 07 15.8          17.8 RoEV060K88
         K20V01L  C2020 11 09.88462 02 01 29.99 +08 06 58.8          18.0 RoEV060K88
         K20V01L  C2020 11 09.88536 02 01 30.63 +08 06 43.5          17.9 RoEV060K88
         K20V01L  C2020 11 09.90643 02 01 51.99 +07 58 50.4          17.8 RoEV060K88
         K20V01L  C2020 11 09.90689 02 01 52.44 +07 58 40.7          17.8 RoEV060K88
         K20V01L  C2020 11 09.90735 02 01 52.88 +07 58 30.7          18.1 RoEV060K88
         K20V01L  C2020 11 09.90782 02 01 53.36 +07 58 19.8          18.1 RoEV060K88
         K20V01L  C2020 11 09.90828 02 01 53.85 +07 58 09.1          17.8 RoEV060K88
         K20V01L  C2020 11 09.90874 02 01 54.32 +07 57 58.9          18.1 RoEV060K88
         K20V01L  C2020 11 09.90967 02 01 55.32 +07 57 37.5          18.0 RoEV060K88
         K20V01L  C2020 11 09.91060 02 01 56.24 +07 57 16.5          17.8 RoEV060K88
         K20V01L  C2020 11 09.91107 02 01 56.70 +07 57 06.1          17.8 RoEV060K88
         K20V01L KC2020 11 09.92236 02 02 11.23 +07 53 08.4          18.6 GVEV060595
         K20V01L KC2020 11 09.92479 02 02 13.66 +07 52 13.5          18.3 GVEV060595
         K20V01L KC2020 11 09.92965 02 02 18.57 +07 50 23.5                VEV060595
         K20V01L KC2020 11 09.93208 02 02 21.07 +07 49 28.5          18.7 GVEV060595
         K20V01L KC2020 11 09.93430 02 02 25.74 +07 48 38.0          19.0 GVEV060204
         K20V01L KC2020 11 09.94123 02 02 32.81 +07 46 00.8                VEV060204
         K20V01L KC2020 11 09.94859 02 02 40.30 +07 43 12.7                VEV060204
         K20V01L KC2020 11 09.96187702 02 58.40 +07 38 21.2          18.5 GVEV060I93
         K20V01L KC2020 11 09.96645302 03 03.07 +07 36 36.7          19.4 GVEV060I93
         K20V01L KC2020 11 09.96711202 02 58.25 +07 36 23.2          18.8 GVEV060K63
         K20V01L KC2020 11 09.97096002 03 07.68 +07 34 52.8          19.0 GVEV060I93
         K20V01L KC2020 11 09.97318502 03 05.46 +07 33 50.6          18.7 GVEV060203
         K20V01L KC2020 11 09.97404302 03 05.41 +07 33 42.7          19.4 GVEV060K63
         K20V01L KC2020 11 09.98365902 03 16.34 +07 29 48.8          18.3 GVEV060203
         K20V01L  C2020 11 09.98983 02 03 18.57 +07 27 01.4          18.1 RoEV060K88
         K20V01L  C2020 11 09.99030 02 03 19.03 +07 26 50.9          18.5 RoEV060K88
         K20V01L  C2020 11 09.99122 02 03 20.09 +07 26 28.4          18.2 RoEV060K88
         K20V01L  C2020 11 09.99169 02 03 20.60 +07 26 17.2          18.0 RoEV060K88
         K20V01L KC2020 11 09.99654402 03 29.83 +07 24 49.5                VEV060203
         K20V01L KC2020 11 10.00765602 03 39.43 +07 20 30.0          19.0 GVEV060L01
         K20V01L KC2020 11 10.00885202 03 40.71 +07 20 01.8          18.9 GVEV060L01
         K20V01L KC2020 11 10.01004502 03 41.98 +07 19 33.9          18.9 GVEV060L01
         K20V01L KC2020 11 10.01123802 03 43.27 +07 19 06.0          19.0 GVEV060L01
         K20V01L KC2020 11 10.01243202 03 44.53 +07 18 38.1          18.9 GVEV060L01
         K20V01L KC2020 11 10.01362702 03 45.83 +07 18 10.1          19.0 GVEV060L01
         K20V01L KC2020 11 10.08147202 05 48.81 +06 52 26.1          19.3 VuEV060H21
         K20V01L KC2020 11 10.08353802 05 51.02 +06 51 38.1          19.0 VuEV060H21
         K20V01L KC2020 11 10.08571702 05 53.42 +06 50 47.0          19.1 VuEV060H21
         K20V01L KC2020 11 10.24171402 08 55.63 +05 48 51.4          18.60GVEV060I52
         K20V01L KC2020 11 10.24340802 08 57.43 +05 48 09.1          18.67GVEV060I52
         K20V01L  C2020 11 10.29304902 09 51.30 +05 27 20.7                VEV060703
         K20V01L  C2020 11 10.29833302 09 57.04 +05 25 08.0          18.59GVEV060703
         K20V01L  C2020 11 10.30362402 10 02.74 +05 22 52.1          19.02GVEV060703
         K20V01L  C2020 11 10.30891402 10 08.47 +05 20 38.9          18.74GVEV060703
         K20V01L  C2020 11 10.50397102 14 40.92 +04 09 06.8          18.3 GVEV060474
         K20V01L  C2020 11 10.50548802 14 42.76 +04 08 25.8          18.4 GVEV060474
         K20V01L  C2020 11 10.50743802 14 45.11 +04 07 33.6          18.2 GVEV060474
         K20V01L  C2020 11 10.50845002 14 46.29 +04 07 06.7          18.3 GVEV060474
    
    Observer details:
    203 GiaGa Observatory.  Observers S. Foglia, G. Galli.  Measurer G. Galli.
        0.36-m f/5.76 Schmidt-Cassegrain + CCD.
    204 Schiaparelli Observatory.  Observer L. Buzzi.  0.84-m f/3.5 reflector +
        CCD.
    474 Mount John Observatory, Lake Tekapo.  Observers A. C. Gilmore, P. M.
        Kilmartin.  Measurer P. M. Kilmartin.  1.0-m f/7.7 reflector + CCD.
    595 Farra d'Isonzo.  Observer E. Pettarin.  0.40-m f/5.15 reflector + CCD.
    703 Catalina Sky Survey.  Observer G. J. Leonard.  Measurers E. J.
        Christensen, G. A. Farneth, D. C. Fuls, A. R. Gibbs, A. D. Grauer, H.
        Groeller, R. A. Kowalski, S. M. Larson, G. J. Leonard, T. A. Pruyne, D.
        Rankin, R. L. Seaman, F. C. Shelly, K. W. Wierzchos.  0.68-m Schmidt + 10K
        CCD.
    H21 Astronomical Research Observatory, Westfield.  Observer R. Holmes.
        Measurers S. Foglia, L. Buzzi, T. Linder, R. Holmes.  0.76-m f/3.0
        astrograph + CCD.
    I52 Steward Observatory, Mt. Lemmon Station.  Observer E. J. Christensen.
        Measurers E. J. Christensen, G. A. Farneth, D. C. Fuls, A. R. Gibbs, A. D.
        Grauer, H. Groeller, R. A. Kowalski, S. M. Larson, G. J. Leonard, T. A.
        Pruyne, D. Rankin, R. L. Seaman, F. C. Shelly, K. W. Wierzchos.  1.0-m
        reflector + CCD.
    I93 St Pardon de Conques.  Observer F. Losse.  0.40-m f/3.7 reflector + CCD.
    K63 G. Pascoli Observatory, Castelvecchio Pascoli.  Observer R. Bacci.  0.4-m
        f/3.2 Newtonian reflector + CCD.
    K88 GINOP-KHK, Piszkesteto.  Observer K. Sarneczky.  0.60-m Schmidt + CCD.
    L01 Visnjan Observatory, Tican.  Observers K. Korlevic, V. Dobos, D. Pujagic.
        Measurer K. Korlevic.  1.0-m f/2.9 reflector + CCD.
    
    Orbital elements:
    2020 VL1                                                 Earth MOID = 0.0097 AU
    Epoch 2020 Dec. 17.0 TT = JDT 2459200.5                 Veres
    M   1.76610              (2000.0)            P               Q
    n   0.70231830     Peri.  219.86849     +0.06442064     -0.99579234
    a   1.2534684      Node   226.54581     +0.93694513     +0.08283473
    e   0.2326903      Incl.    5.15096     +0.34348772     -0.03919214
    P   1.40           H   27.1           G   0.15           U   6
    Residuals in seconds of arc
    201106 K88  0.0   0.1-    201109 595  0.1-  0.5+    201110 L01  0.1+  0.1-
    201106 K88  0.1-  0.2-    201109 204  0.1+  0.4-    201110 L01  0.3+  0.1-
    201106 K88  0.0   0.2+    201109 204  0.3+  0.0     201110 L01  0.0   0.0
    201109 K88  0.7-  0.0     201109 204  0.1-  0.2-    201110 L01  0.3+  0.0
    201109 K88  1.3+  1.1-    201109 I93  0.2+  0.2-    201110 H21  0.4+  0.3-
    201109 K88  0.3-  0.1+    201109 I93  0.1+  0.3+    201110 H21  0.3-  0.2+
    201109 K88  0.1+  0.3-    201109 K63  0.2+  0.1+    201110 H21  0.0   0.3+
    201109 K88  0.1-  0.3+    201109 I93  0.0   0.1-    201110 I52  0.4+  0.1-
    201109 K88  0.5-  0.7+    201109 203  0.1+  0.4-    201110 I52  0.1+  0.3-
    201109 K88  0.5-  0.4+    201109 K63  0.5+  0.5-    201110 703  1.9+  1.0-
    201109 K88  0.2-  0.0     201109 203  0.2+  0.1-    201110 703  1.1+  0.5+
    201109 K88  0.1-  0.2+    201109 K88  0.7-  0.7+    201110 703  0.7-  0.7-
    201109 K88  0.7+  0.2-    201109 K88  1.3-  1.1+    201110 703  2.3-  1.0+
    201109 K88  0.3+  0.2-    201109 K88  0.2-  0.1+    201110 474  0.3-  0.1-
    201109 K88  0.0   0.0     201109 K88  0.1-  0.2-    201110 474  0.0   0.3-
    201109 595  0.3+  0.0     201109 203  0.2+  0.2-    201110 474  0.1+  0.1-
    201109 595  0.2-  0.1+    201110 L01  0.2+  0.1+    201110 474  0.5-  0.3+
    201109 595  0.6-  0.3+    201110 L01  0.2+  0.2-
    
    Ephemeris:
    2020 VL1                 a,e,i = 1.25, 0.23, 5                   q = 0.9618
    Date    TT    R. A. (2000) Decl.     Delta      r    Elong.  Phase     V
    2020 10 11    00 27 13.1 +33 30 10   0.1040  1.0912   152.0    25.4    23.5
    ...
    2020 10 26    00 33 06.8 +32 06 06   0.05559 1.0433   151.6    26.9    22.1
    ...
    2020 11 03    00 53 50.6 +27 12 55   0.03220 1.0210   153.9    25.3    20.8
    ...
    2020 11 09    01 45 54.8 +13 01 04   0.01633 1.0061   162.4    17.3    19.1
    2020 11 10    02 03 46.0 +07 30 16   0.01410 1.0038   163.0    16.8    18.7
    2020 11 11    02 27 09.3 +00 02 03   0.01217 1.0015   160.3    19.5    18.5
    ...
    2020 11 17    07 41 43.6 -51 26 27   0.01391 0.9890    90.8    88.4    20.9
    ...
    2020 11 25    10 35 49.4 -47 13 54   0.03405 0.9757    69.5   108.6    23.8
    ...
    2020 12 10    11 31 36.3 -42 39 16   0.07465 0.9625    70.6   105.2    25.3
    
    M. P. C. Staff               (C) Copyright 2020 MPC           M.P.E.C. 2020-V60
    


    Read MPEC 2020-V59 Read MPEC 2020-V61


    MPEC number:

    Enter an MPEC number in one of the following forms:

    • 1997-B01 (the full form)
    • J97B01 (the packed version of the full form)
    • B01 (the abbreviated form)